This is the latest recevied weather packets stored in our database for station/object KJ6LNH-1. If no packets are shown the sender has not sent any weather packets the latest 10 day(s).
| Time | Temp. | Humidity | Pressure | Rain* | Wind** | Luminosity | Snow |
|---|---|---|---|---|---|---|---|
| 1787624406 | 26.67° C | 35% | 1012.1 hPa | 0 mm | - | - | - |
| 1787624106 | 26.67° C | 34% | 1012.1 hPa | 0 mm | - | - | - |
| 1787623805 | 27.22° C | 29% | 1012 hPa | 0 mm | - | - | - |
| 1787623507 | 27.78° C | 23% | 1012 hPa | 0 mm | - | - | - |
| 1787622606 | 28.33° C | 23% | 1011.9 hPa | 0 mm | - | - | - |
| 1787622307 | 28.33° C | 23% | 1011.9 hPa | 0 mm | - | - | - |
| 1787622006 | 28.33° C | 22% | 1011.9 hPa | 0 mm | - | - | - |
| 1787621108 | 29.44° C | 27% | 1011.8 hPa | 0 mm | - | - | - |
| 1787620807 | 30° C | 29% | 1011.9 hPa | 0 mm | - | - | - |
| 1787620508 | 30° C | 30% | 1011.9 hPa | 0 mm | - | - | - |
| 1787620207 | 30.56° C | 27% | 1011.9 hPa | 0 mm | - | - | - |
| 1787619307 | 31.11° C | 30% | 1011.9 hPa | 0 mm | - | - | - |
| 1787619007 | 31.67° C | 26% | 1011.8 hPa | 0 mm | - | - | - |
| 1787618407 | 31.67° C | 28% | 1011.9 hPa | 0 mm | - | - | - |
| 1787617506 | 32.78° C | 25% | 1011.7 hPa | 0 mm | - | - | - |
| 1787617207 | 33.33° C | 22% | 1011.7 hPa | 0 mm | - | - | - |
| 1787616607 | 33.33° C | 21% | 1011.7 hPa | 0 mm | - | - | - |
| 1787616307 | 33.89° C | 21% | 1011.8 hPa | 0 mm | - | - | - |
| 1787615707 | 33.33° C | 22% | 1011.7 hPa | 0 mm | - | - | - |
| 1787615406 | 34.44° C | 22% | 1011.7 hPa | 0 mm | - | - | - |
| 1787615107 | 33.89° C | 23% | 1011.8 hPa | 0 mm | - | - | - |
| 1787614508 | 33.89° C | 25% | 1011.7 hPa | 0 mm | - | - | - |
| 1787613907 | 33.89° C | 26% | 1011.7 hPa | 0 mm | - | - | - |
| 1787613607 | 33.33° C | 27% | 1011.8 hPa | 0 mm | - | - | - |
| 1787613346 | 33.33° C | 28% | 1011.8 hPa | 0 mm | - | - | - |
* Rain latest hour (hover to see other rain measurements)
** Current wind speed in m/s (hover to see current wind gust speed)